User: anonymous   Login
Location: Huntsville
(41.2590°N, 111.7678°W)
Time: 04:58:03
(UTC+00:00)
Language:

A-11 Canister half - Orbit

View from above orbital plane
View from above orbital plane
View from above satellite
View from above satellite

Ground track
Ground track

The orbit data is extracted from the following two-line orbital elements,

1 00051U 60009C   22278.68212139 -.00000045  00000-0  38805-3 0  9991
2 00051  47.2114 267.9565 0105688 141.8236 219.0096 12.18282846766525
Epoch (UTC): 05 October 2022 16:22:15
Eccentricity: 0.0105688
inclination: 47.2114°
perigee height: 1516 km
apogee height: 1684 km
right ascension of ascending node: 267.9565°
argument of perigee: 141.8236°
revolutions per day: 12.18282846
mean anomaly at epoch: 219.0096°
orbit number at epoch: 76652

The dashed part of the orbit path shows where the satellite is in the earth's shadow,  

DLR